Simultaneous Nadir Overpasses (SNOs) Predictions

Prediction of SNOs between GOES-17 and NOAA-19 Satellite Orbit:

Table of predicted SNOs for the next 14.0 days since TLE Epoch: 6/4/2022
Index Date Time (GOES-17) GOES-17 Lat,Lon NOAA-19 Lat,Lon Distance(km) Time Diff (sec)
1 06/04/2022 16:54:41 0.06,-137.20 0.16,-137.52 38.08 80
2 06/05/2022 16:45:32 0.05,-137.20 -0.56,-134.65 291.67 80
3 06/08/2022 05:03:29 -0.05,-137.19 -0.60,-139.53 266.77 80
4 06/09/2022 04:54:18 -0.05,-137.19 0.05,-136.64 62.44 80
5 06/10/2022 04:42:29 -0.05,-137.18 0.77,-133.76 391.35 80
6 06/11/2022 17:12:13 0.04,-137.17 1.04,-141.52 496.12 80
7 06/12/2022 17:00:23 0.04,-137.16 0.37,-138.63 167.70 80
8 06/13/2022 16:51:12 0.03,-137.15 -0.30,-135.74 160.45 80
9 06/14/2022 16:39:22 0.03,-137.13 -0.98,-132.86 488.30 80
10 06/16/2022 05:11:00 -0.02,-137.10 -0.82,-140.64 403.17 29
11 06/17/2022 05:00:00 -0.02,-137.08 -0.16,-137.75 75.81 80
